| time (UTC) | temp F | wind direction | speed MPH | gust MPH | rain 1hr in | rain 24hr in | rain mn in | humidity % | barometer mb |
| 20260902230001 | 64 | 170 | 2.0 | 8.0 | 0.00 | 0.01 | 0.00 | 87 | 1017.9 |
| 20260902224601 | 64 | 169 | 0.0 | 4.0 | 0.00 | 0.01 | 0.00 | 87 | 1018.3 |
| 20260902223059 | 64 | 169 | 0.0 | 4.0 | 0.00 | 0.01 | 0.00 | 87 | 1018.7 |
| 20260902221701 | 64 | 182 | 0.0 | 0.0 | 0.00 | 0.01 | 0.00 | 87 | 1018.7 |
| 20260902214558 | 64 | 171 | 0.0 | 0.0 | 0.00 | 0.01 | 0.00 | 87 | 1019.1 |
| 20260902213058 | 64 | 163 | 0.0 | 0.0 | 0.00 | 0.01 | 0.00 | 87 | 1018.9 |
| 20260902211600 | 64 | 134 | 0.0 | 7.0 | 0.00 | 0.01 | 0.00 | 87 | 1018.7 |
| 20260902210057 | 64 | 181 | 0.0 | 8.0 | 0.00 | 0.01 | 0.00 | 87 | 1018.9 |
| 20260902204612 | 64 | 134 | 0.0 | 4.0 | 0.00 | 0.01 | 0.00 | 87 | 1018.8 |
| 20260902203057 | 64 | 164 | 0.0 | 1.0 | 0.00 | 0.01 | 0.00 | 86 | 1018.9 |
| 20260902201555 | 64 | 177 | 1.0 | 6.0 | 0.00 | 0.01 | 0.00 | 86 | 1018.7 |
| 20260902200055 | 64 | 197 | 0.0 | 8.0 | 0.00 | 0.01 | 0.00 | 87 | 1019.1 |
| 20260902194558 | 64 | 157 | 1.0 | 7.0 | 0.00 | 0.01 | 0.00 | 86 | 1019.1 |
| 20260902193055 | 64 | 148 | 1.0 | 9.0 | 0.00 | 0.01 | 0.00 | 86 | 1019.4 |
| 20260902191602 | 64 | 188 | 2.0 | 6.0 | 0.00 | 0.01 | 0.00 | 86 | 1019.3 |
| 20260902190053 | 64 | 163 | 2.0 | 8.0 | 0.00 | 0.01 | 0.00 | 86 | 1019.5 |
| 20260902184553 | 64 | 158 | 0.0 | 6.0 | 0.00 | 0.01 | 0.00 | 86 | 1019.4 |
| 20260902183129 | 64 | 166 | 3.0 | 6.0 | 0.00 | 0.01 | 0.00 | 85 | 1019.8 |
| 20260902181551 | 64 | 163 | 0.0 | 7.0 | 0.00 | 0.01 | 0.00 | 86 | 1019.7 |
| 20260902180050 | 64 | 173 | 0.0 | 0.0 | 0.00 | 0.01 | 0.00 | 86 | 1019.8 |
| 20260902174549 | 64 | 161 | 0.0 | 6.0 | 0.00 | 0.02 | 0.00 | 85 | 1019.9 |
| 20260902173055 | 64 | 159 | 0.0 | 10.0 | 0.00 | 0.02 | 0.00 | 84 | 1019.9 |
| 20260902171558 | 63 | 163 | 2.0 | 10.0 | 0.00 | 0.02 | 0.00 | 84 | 1020.0 |
| 20260902170048 | 63 | 183 | 1.0 | 9.0 | 0.00 | 0.02 | 0.00 | 86 | 1019.9 |
| 20260902164559 | 63 | 142 | 1.0 | 10.0 | 0.00 | 0.02 | 0.00 | 85 | 1020.2 |
| 20260902163046 | 63 | 127 | 1.0 | 7.0 | 0.00 | 0.02 | 0.00 | 85 | 1020.3 |
| 20260902161546 | 63 | 134 | 3.0 | 9.0 | 0.00 | 0.02 | 0.00 | 85 | 1020.1 |
| 20260902160047 | 62 | 138 | 2.0 | 7.0 | 0.00 | 0.02 | 0.00 | 85 | 1020.4 |
| 20260902154553 | 62 | 182 | 0.0 | 6.0 | 0.00 | 0.04 | 0.00 | 84 | 1020.9 |
| 20260902153043 | 62 | 180 | 0.0 | 11.0 | 0.00 | 0.04 | 0.00 | 83 | 1020.7 |
| 20260902151542 | 62 | 180 | 3.0 | 7.0 | 0.00 | 0.04 | 0.00 | 84 | 1020.6 |
| 20260902150041 | 62 | 174 | 0.0 | 4.0 | 0.00 | 0.04 | 0.00 | 84 | 1021.0 |
| 20260902144543 | 62 | 146 | 0.0 | 6.0 | 0.00 | 0.05 | 0.00 | 83 | 1021.2 |
| 20260902143039 | 63 | 192 | 2.0 | 5.0 | 0.00 | 0.05 | 0.00 | 84 | 1020.9 |
| 20260902141539 | 63 | 168 | 0.0 | 4.0 | 0.00 | 0.05 | 0.00 | 84 | 1021.0 |
| 20260902140039 | 63 | 153 | 2.0 | 7.0 | 0.00 | 0.05 | 0.00 | 84 | 1020.6 |
| 20260902134534 | 62 | 198 | 1.0 | 5.0 | 0.00 | 0.05 | 0.00 | 83 | 1020.5 |
| 20260902133031 | 61 | 117 | 1.0 | 7.0 | 0.00 | 0.05 | 0.00 | 85 | 1020.5 |
| 20260902131527 | 60 | 178 | 1.0 | 6.0 | 0.00 | 0.05 | 0.00 | 86 | 1020.4 |
| 20260902130031 | 60 | 140 | 0.0 | 0.0 | 0.00 | 0.05 | 0.00 | 86 | 1020.5 |
| 20260902124523 | 59 | 23 | 0.0 | 0.0 | 0.00 | 0.06 | 0.00 | 85 | 1020.3 |
| 20260902123028 | 59 | 216 | 0.0 | 4.0 | 0.00 | 0.06 | 0.00 | 85 | 1020.2 |
| 20260902121520 | 59 | 139 | 1.0 | 7.0 | 0.00 | 0.06 | 0.00 | 87 | 1020.3 |
| 20260902120017 | 58 | 278 | 0.0 | 0.0 | 0.00 | 0.06 | 0.00 | 88 | 1020.3 |
| 20260902114518 | 57 | 155 | 0.0 | 2.0 | 0.00 | 0.20 | 0.00 | 88 | 1020.5 |
| 20260902113011 | 56 | 166 | 0.0 | 0.0 | 0.00 | 0.20 | 0.00 | 88 | 1020.5 |
| 20260902111509 | 56 | 165 | 0.0 | 0.0 | 0.00 | 0.20 | 0.00 | 88 | 1020.5 |
| 20260902110008 | 55 | 165 | 0.0 | 0.0 | 0.00 | 0.20 | 0.00 | 88 | 1020.6 |
| 20260902104506 | 56 | 202 | 0.0 | 0.0 | 0.00 | 0.32 | 0.00 | 88 | 1020.4 |
| 20260902103003 | 55 | 201 | 0.0 | 0.0 | 0.00 | 0.32 | 0.00 | 88 | 1020.3 |
| 20260902101502 | 55 | 202 | 0.0 | 0.0 | 0.00 | 0.32 | 0.00 | 88 | 1020.2 |
| 20260902094559 | 55 | 168 | 0.0 | 0.0 | 0.00 | 0.32 | 0.00 | 88 | 1019.7 |
| 20260902093058 | 55 | 169 | 0.0 | 1.0 | 0.00 | 0.32 | 0.00 | 88 | 1019.8 |
| 20260902091601 | 55 | 152 | 0.0 | 0.0 | 0.00 | 0.32 | 0.00 | 88 | 1019.7 |
| 20260902090058 | 55 | 152 | 0.0 | 0.0 | 0.00 | 0.32 | 0.00 | 88 | 1019.5 |
| 20260902084556 | 55 | 152 | 0.0 | 0.0 | 0.00 | 0.32 | 0.00 | 88 | 1019.5 |
| 20260902083055 | 55 | 186 | 0.0 | 0.0 | 0.00 | 0.32 | 0.00 | 88 | 1019.4 |
| 20260902081559 | 55 | 186 | 0.0 | 0.0 | 0.00 | 0.32 | 0.00 | 88 | 1019.5 |
| 20260902080057 | 55 | 186 | 0.0 | 0.0 | 0.00 | 0.32 | 0.00 | 88 | 1019.4 |
| 20260902074555 | 55 | 186 | 0.0 | 0.0 | 0.00 | 0.32 | 0.00 | 88 | 1019.5 |
| 20260902073054 | 56 | 187 | 0.0 | 0.0 | 0.00 | 0.32 | 0.00 | 88 | 1019.4 |
| 20260902071549 | 56 | 174 | 0.0 | 0.0 | 0.00 | 0.32 | 0.00 | 88 | 1019.2 |
| 20260902070049 | 56 | 174 | 0.0 | 0.0 | 0.00 | 0.32 | 0.00 | 88 | 1019.2 |
| 20260902064551 | 57 | 174 | 0.0 | 0.0 | 0.00 | 0.32 | 0.00 | 88 | 1019.5 |
| 20260902063057 | 57 | 174 | 0.0 | 0.0 | 0.00 | 0.32 | 0.00 | 88 | 1019.6 |
| 20260902061545 | 57 | 174 | 0.0 | 0.0 | 0.00 | 0.32 | 0.00 | 87 | 1019.4 |
| 20260902060043 | 57 | 174 | 0.0 | 0.0 | 0.00 | 0.32 | 0.00 | 88 | 1019.5 |
| 20260902054543 | 57 | 174 | 0.0 | 0.0 | 0.00 | 0.32 | 0.00 | 88 | 1019.3 |
| 20260902053041 | 57 | 174 | 0.0 | 0.0 | 0.00 | 0.32 | 0.00 | 88 | 1019.2 |
| 20260902051539 | 57 | 174 | 0.0 | 0.0 | 0.00 | 0.32 | 0.00 | 88 | 1019.0 |
| 20260902050037 | 57 | 174 | 0.0 | 0.0 | 0.00 | 0.32 | 0.00 | 88 | 1018.8 |
| 20260902044536 | 57 | 174 | 0.0 | 0.0 | 0.01 | 0.32 | 0.00 | 88 | 1018.4 |
| 20260902043041 | 57 | 174 | 0.0 | 0.0 | 0.01 | 0.32 | 0.00 | 88 | 1018.2 |
| 20260902041535 | 57 | 174 | 0.0 | 0.0 | 0.01 | 0.32 | 0.00 | 88 | 1018.2 |
| 20260902040033 | 57 | 174 | 0.0 | 0.0 | 0.01 | 0.32 | 0.00 | 88 | 1018.3 |
| 20260902034532 | 57 | 174 | 0.0 | 3.0 | 0.00 | 0.31 | 0.31 | 88 | 1017.9 |
| 20260902033032 | 57 | 158 | 0.0 | 0.0 | 0.00 | 0.31 | 0.31 | 88 | 1017.9 |
| 20260902031532 | 57 | 167 | 0.0 | 0.0 | 0.00 | 0.31 | 0.31 | 88 | 1018.1 |
| 20260902030030 | 57 | 174 | 0.0 | 0.0 | 0.00 | 0.31 | 0.31 | 88 | 1018.2 |
| 20260902024528 | 58 | 173 | 0.0 | 3.0 | 0.00 | 0.31 | 0.31 | 88 | 1018.2 |
| 20260902023039 | 58 | 180 | 1.0 | 5.0 | 0.00 | 0.31 | 0.31 | 88 | 1018.1 |
| 20260902021538 | 58 | 178 | 0.0 | 5.0 | 0.00 | 0.31 | 0.31 | 88 | 1017.9 |
| 20260902020024 | 59 | 173 | 0.0 | 0.0 | 0.00 | 0.31 | 0.31 | 88 | 1017.7 |
| 20260902014524 | 59 | 171 | 0.0 | 0.0 | 0.00 | 0.31 | 0.31 | 88 | 1017.3 |
| 20260902013023 | 59 | 145 | 0.0 | 0.0 | 0.00 | 0.31 | 0.31 | 88 | 1017.5 |
| 20260902011522 | 59 | 97 | 0.0 | 0.0 | 0.00 | 0.31 | 0.31 | 88 | 1017.6 |
| 20260902010021 | 59 | 275 | 0.0 | 0.0 | 0.00 | 0.31 | 0.31 | 88 | 1017.5 |
| 20260902004520 | 59 | 275 | 0.0 | 0.0 | 0.00 | 0.31 | 0.31 | 88 | 1017.5 |
| 20260902003019 | 59 | 185 | 0.0 | 0.0 | 0.00 | 0.31 | 0.31 | 88 | 1017.3 |
| 20260902001517 | 59 | 172 | 0.0 | 0.0 | 0.00 | 0.31 | 0.31 | 88 | 1017.1 |
| 20260902000016 | 59 | 360 | 0.0 | 0.0 | 0.00 | 0.31 | 0.31 | 88 | 1016.8 |
| 20260901234513 | 59 | 173 | 0.0 | 0.0 | 0.00 | 0.31 | 0.31 | 88 | 1016.7 |
| 20260901233013 | 59 | 184 | 0.0 | 0.0 | 0.00 | 0.31 | 0.31 | 88 | 1016.7 |
| 20260901231513 | 59 | 181 | 0.0 | 0.0 | 0.00 | 0.31 | 0.31 | 88 | 1016.7 |